Theta_e
363 364 362 361 361 357 348 345 321 327 326 318 321 324 320 334 336 333 332 337 333 341 343 343 342 340 336 332 334 335 333 332 331 324 323 343 355 355 353 346 352 353 355 359 364 367 367 366 367 366 365 364 364 364 364 365 364 364 364 364 363 363 364 364 365 364 364 363 363 363 363 363 362 363 363 363 363 361 363 362 361 362 361 361 362 362 363 363 361 360 361 360 361 360 361 361 361
358 359 362 363 357 349 333 343 323 322 321 318 321 327 327 334 331 330 330 333 336 338 342 342 342 341 338 338 338 336 332 340 341 339 345 350 354 353 349 351 351 352 355 359 364 364 365 366 367 366 363 363 363 364 365 365 364 364 364 364 363 364 364 365 364 363 363 362 361 362 362 363 362 362 361 361 361 361 360 361 360 361 361 362 362 360 363 363 361 360 362 363 362 362 362 361 361
360 359 359 358 351 346 338 337 320 319 313 312 320 324 333 329 329 333 337 338 341 342 342 341 341 341 337 337 334 334 330 342 341 344 345 352 347 351 350 351 350 353 356 361 364 362 364 366 367 367 365 363 363 366 365 365 364 364 364 364 364 364 364 363 364 363 363 363 363 363 361 361 361 360 361 361 360 361 360 361 359 360 361 361 362 362 363 362 362 363 364 363 363 363 362 361 361
362 359 353 349 333 345 328 326 323 322 314 316 321 328 330 329 330 337 342 343 343 342 340 337 335 341 338 332 334 340 337 339 342 345 345 348 351 352 351 347 355 355 357 359 361 360 363 366 367 365 364 362 363 365 365 364 364 364 364 364 364 364 365 363 364 363 364 363 363 363 360 360 360 360 360 360 361 362 361 360 359 360 361 362 362 362 362 362 363 364 363 364 364 363 363 364 363
352 355 353 344 335 326 329 324 321 323 313 318 317 328 330 331 336 339 340 343 343 342 339 338 337 340 342 340 340 335 337 342 344 347 347 353 355 354 350 351 352 353 355 358 359 359 363 365 365 363 363 362 364 365 366 364 364 364 364 365 364 364 364 364 363 363 363 363 363 363 360 360 359 360 360 360 360 360 360 360 360 361 361 362 362 363 363 361 361 360 362 363 363 363 364 364 364
353 349 351 346 330 342 330 321 320 321 324 330 322 325 333 337 338 339 339 342 343 342 340 338 334 333 335 337 344 341 345 337 344 347 349 350 353 354 351 353 351 352 355 359 361 360 365 365 363 363 362 363 365 365 365 365 364 364 365 365 365 364 364 363 363 363 363 364 363 359 360 360 361 360 361 360 360 359 359 360 361 361 361 362 363 363 362 361 361 360 362 363 363 363 364 364 364
343 343 340 341 338 338 319 319 320 322 326 332 327 330 334 337 340 340 338 339 340 340 342 338 340 337 335 338 343 348 352 350 344 347 352 353 355 356 354 350 350 352 356 359 360 361 364 365 363 362 362 364 365 366 366 363 364 364 366 365 365 364 364 364 363 363 363 360 361 360 360 360 361 360 359 359 358 359 359 361 360 361 362 362 363 363 363 361 362 362 362 363 363 363 363 363 363
349 332 331 326 325 326 322 322 321 325 326 334 336 333 336 339 341 340 337 336 333 334 337 340 340 339 335 342 337 346 352 353 354 354 355 354 354 355 351 349 349 352 356 359 362 361 368 364 363 363 364 365 365 365 365 363 364 364 365 365 365 365 364 363 362 359 360 361 361 360 360 360 359 358 359 358 358 359 360 359 359 360 361 362 363 363 364 361 363 363 364 365 364 362 364 364 364
342 340 343 329 321 326 321 321 322 330 333 335 335 339 338 341 342 340 338 339 336 338 337 338 339 335 333 339 341 346 349 355 356 358 355 353 353 353 352 350 351 352 354 356 359 361 364 364 364 363 365 366 366 366 366 362 364 365 366 366 365 365 364 363 361 362 361 360 358 359 359 359 360 359 358 358 359 360 360 360 360 361 361 361 362 363 363 364 364 364 364 361 365 365 364 365 365
337 342 326 326 328 318 320 321 322 327 332 335 336 339 339 340 340 342 340 337 336 337 338 340 339 336 337 337 339 345 348 354 355 354 355 353 354 354 351 352 353 354 354 356 359 359 361 363 363 363 364 367 367 366 367 361 361 365 366 365 366 366 365 361 361 359 359 358 359 360 362 362 359 359 359 359 361 362 361 361 361 362 362 362 362 363 363 363 364 365 365 365 366 363 365 364 364
326 335 339 326 318 318 316 321 326 330 331 335 337 340 339 340 341 340 339 338 339 337 338 339 334 336 338 340 343 352 352 353 352 351 353 353 355 352 353 355 355 355 355 356 358 359 360 363 363 362 363 364 366 366 362 361 361 363 367 367 366 365 364 361 359 359 358 359 361 363 363 361 359 359 360 360 361 361 362 362 362 363 362 363 364 363 364 365 366 365 366 366 366 367 368 366 366
330 332 333 322 319 319 321 321 325 328 332 333 332 337 341 342 342 337 338 334 337 337 336 337 335 339 336 337 340 347 350 352 352 353 354 355 354 354 354 355 355 355 355 356 358 361 361 361 363 362 362 361 362 362 361 361 361 361 366 368 362 361 360 360 359 358 357 360 362 362 362 359 359 359 360 360 361 362 362 363 364 364 364 364 364 365 365 366 367 368 367 368 368 368 369 369 370
334 338 332 324 322 325 325 323 324 325 329 329 330 339 344 340 339 340 338 335 337 335 334 339 340 340 334 339 344 347 346 350 352 353 355 354 353 353 354 354 355 356 356 359 358 359 360 361 360 364 360 360 361 361 361 361 360 361 362 361 361 360 359 359 359 358 358 361 361 361 360 360 360 360 361 361 361 362 363 363 363 364 365 366 367 367 368 368 368 368 368 369 369 370 370 371 372
340 338 333 324 330 324 322 321 325 323 325 332 336 341 344 341 342 341 340 333 336 335 338 339 339 340 341 339 340 342 346 351 352 353 354 353 352 352 353 354 354 355 357 357 356 357 359 359 359 359 360 363 364 362 361 361 361 360 360 361 361 361 359 359 360 359 360 361 360 361 360 361 362 361 362 362 361 362 363 364 364 365 366 366 366 367 369 368 369 369 370 370 371 370 371 372 373
340 340 334 326 324 324 326 319 320 324 323 332 338 338 339 344 343 340 340 335 335 339 341 343 342 336 333 334 336 343 346 351 351 352 353 353 353 352 354 354 354 355 356 356 355 356 357 358 358 361 363 362 363 363 363 362 360 361 361 360 361 360 359 360 360 360 361 361 361 362 361 361 362 362 362 363 364 364 365 366 367 366 367 368 369 369 370 371 372 372 372 373 372 372 373 374 373
345 338 331 323 320 321 323 324 327 325 324 333 338 340 339 341 346 342 343 346 337 338 340 335 342 338 341 336 344 346 349 351 351 351 351 351 351 352 353 353 352 353 354 354 354 355 356 357 360 359 361 360 361 361 363 363 362 361 361 361 360 361 360 360 360 361 361 362 362 362 361 364 364 365 364 364 363 363 363 366 365 367 368 369 370 371 372 372 372 373 374 374 375 375 376 375 375
345 341 330 324 318 321 323 325 329 322 332 333 339 337 335 338 344 346 344 341 336 335 340 340 338 341 344 345 348 348 350 351 350 349 349 348 349 348 351 351 351 352 353 353 355 355 355 355 359 360 360 357 358 361 361 362 363 361 362 361 362 362 362 361 360 361 362 363 364 363 363 365 368 368 368 366 364 369 365 365 367 368 369 369 369 370 371 371 372 373 374 375 375 377 377 377 376
341 334 330 323 324 323 326 325 330 332 330 331 334 336 338 336 342 343 343 336 339 338 340 342 344 343 350 348 349 350 350 348 347 346 345 345 346 346 346 349 350 349 350 351 354 355 355 356 359 360 361 360 359 358 360 363 363 363 365 365 366 365 363 363 365 365 363 367 363 364 369 366 368 370 369 366 370 371 370 367 367 367 367 367 368 369 371 371 372 372 373 374 375 376 376 374 373
338 334 331 322 327 329 333 333 333 331 331 332 333 334 337 340 342 341 338 333 335 337 341 342 342 343 346 347 347 348 348 346 345 345 344 344 345 344 345 348 348 347 347 350 353 352 357 357 358 357 359 361 360 361 359 361 363 365 366 365 365 363 365 366 366 366 367 368 369 369 368 369 369 370 371 370 367 366 363 364 366 366 367 368 369 371 372 373 372 373 373 373 375 375 375 367 367
341 334 326 327 330 332 333 338 335 336 335 334 332 335 339 342 342 343 338 332 336 334 334 338 340 340 343 344 346 346 346 346 346 345 345 345 345 344 345 345 346 347 347 349 352 353 356 356 357 358 360 361 361 361 362 362 362 364 364 365 366 367 368 367 367 366 367 367 367 369 366 368 366 368 364 365 367 370 368 368 368 368 369 371 372 373 373 374 374 373 373 376 378 372 367 365 365
341 335 328 327 333 331 335 340 340 340 339 338 337 336 337 338 340 339 337 331 332 336 338 337 340 342 343 344 345 346 345 345 346 346 344 343 344 344 343 344 344 348 348 350 353 351 353 356 356 359 361 361 361 362 362 363 365 363 363 364 366 365 366 367 367 368 368 368 368 366 364 365 363 366 365 366 365 366 365 365 365 367 367 368 370 366 362 357 364 355 362 371 364 363 362 364 361
339 333 334 335 337 333 340 341 343 339 340 338 337 334 336 343 339 340 337 333 328 335 339 340 345 346 343 343 344 346 344 344 344 345 343 343 342 341 343 344 345 347 351 349 350 351 352 354 355 358 360 362 362 362 362 363 365 362 364 364 365 366 367 366 366 366 365 369 366 363 365 364 363 361 363 364 364 365 362 361 362 363 363 364 363 363 361 362 361 357 356 356 357 360 359 361 361
331 335 335 336 338 334 339 343 342 341 339 337 336 338 343 338 339 339 338 335 340 343 342 344 347 347 348 346 345 343 343 344 344 345 344 341 341 341 341 343 345 344 349 349 351 352 352 352 356 358 358 362 363 365 364 364 363 364 364 365 365 364 365 366 364 363 364 369 367 364 361 357 358 354 357 360 361 362 359 358 358 362 362 360 359 359 358 358 358 358 360 360 356 355 355 358 359
335 329 334 336 340 340 345 343 344 339 336 337 340 340 338 337 335 342 337 342 344 343 342 345 347 348 349 346 344 343 342 344 345 346 345 341 340 340 342 342 344 346 348 346 348 349 353 351 356 357 359 360 364 362 363 363 364 363 363 366 366 367 365 364 361 363 367 366 368 364 362 358 353 353 355 358 357 358 357 360 362 358 356 355 357 357 355 354 354 355 361 361 358 358 355 354 355
335 333 336 339 344 344 344 342 342 344 343 342 339 336 337 338 339 339 337 341 343 343 343 346 350 349 349 348 346 347 344 345 345 346 346 344 341 342 343 343 343 344 343 343 345 345 346 349 354 355 357 361 361 362 361 362 364 365 363 361 363 364 365 365 362 366 364 361 361 366 363 355 353 353 352 351 354 357 358 359 358 356 358 358 359 353 353 353 351 350 354 354 359 359 356 357 357
333 333 337 340 341 344 343 345 344 341 341 342 337 335 339 340 341 336 340 344 346 343 344 346 348 346 350 348 347 349 346 346 345 344 343 343 342 341 342 342 341 341 340 341 343 344 346 347 350 352 353 358 359 359 362 362 363 363 363 365 363 366 364 364 367 363 359 356 357 363 359 357 352 348 349 352 348 349 351 355 358 357 354 355 354 353 353 350 349 349 349 351 348 350 349 352 352
335 335 338 339 341 343 344 342 343 343 342 342 337 336 337 341 336 330 338 344 347 342 343 345 345 346 347 349 350 349 346 348 346 345 343 342 341 340 340 339 339 337 338 337 339 343 345 347 347 351 352 359 358 357 362 363 364 364 364 364 364 365 364 367 366 362 357 357 358 365 368 365 354 347 347 349 347 345 347 350 352 354 352 351 355 353 356 355 353 351 349 348 353 353 351 350 349
336 338 338 340 341 344 343 344 342 343 340 343 341 336 340 340 335 334 339 344 343 340 343 344 343 343 344 347 349 350 349 349 348 345 339 338 339 338 337 337 337 336 335 335 337 342 342 344 345 348 350 356 360 356 362 363 363 363 366 365 362 363 366 364 361 360 358 358 360 365 367 362 361 350 349 349 348 348 346 344 348 353 351 351 356 353 353 357 357 354 353 353 354 356 355 352 352
336 337 332 337 339 339 341 339 342 344 340 343 342 337 334 336 331 337 341 344 342 340 341 341 341 342 343 345 346 348 347 347 346 343 339 338 338 337 335 336 336 335 336 335 337 341 340 344 343 348 350 355 360 355 356 360 361 360 363 364 364 362 366 365 358 356 359 361 365 366 368 366 365 354 350 358 357 350 347 349 353 356 355 357 356 355 354 359 357 355 356 356 355 356 354 354 351
336 334 329 332 333 334 341 343 342 341 343 343 341 320 326 332 335 337 341 342 341 340 340 340 341 342 342 344 343 346 347 346 343 343 340 337 337 335 334 334 335 334 336 337 337 338 341 344 348 350 351 352 359 357 357 360 361 361 362 361 364 364 359 357 358 357 359 361 364 368 365 365 362 357 356 355 361 355 355 357 357 354 355 359 360 357 352 354 353 354 352 353 354 354 352 355 352
328 332 330 323 322 325 340 341 339 338 344 342 339 321 325 333 337 341 341 343 341 338 338 339 341 341 342 343 344 344 346 346 342 342 341 341 339 338 334 334 336 336 339 341 341 343 345 347 349 349 354 354 359 359 359 360 361 358 360 359 358 361 360 356 353 352 354 355 356 355 364 363 363 359 360 354 357 362 355 352 354 353 355 359 353 352 351 353 354 353 352 352 354 354 352 355 353
326 324 319 325 318 327 337 341 338 336 341 343 335 324 324 332 338 342 342 343 341 339 338 338 340 342 342 343 343 343 343 344 343 341 341 342 342 342 341 341 342 342 342 345 344 346 345 346 350 347 352 355 356 361 362 361 360 359 359 359 357 361 357 355 351 348 346 345 349 353 358 365 364 364 362 361 355 357 354 352 350 354 356 356 350 351 357 355 352 350 354 353 351 351 353 351 355
324 317 315 315 318 321 329 337 340 340 340 341 334 324 329 330 338 340 341 341 340 338 337 337 340 341 341 341 342 342 343 342 345 344 343 344 345 345 344 345 345 346 345 345 346 347 347 348 352 349 347 351 353 356 361 362 362 360 360 358 355 358 356 355 353 351 347 343 342 342 351 361 366 365 368 366 360 356 354 354 351 352 354 353 349 345 349 351 351 347 353 355 355 351 351 350 352
317 319 314 316 314 316 319 334 340 339 337 333 337 329 329 332 337 338 340 341 339 337 337 337 339 339 341 341 341 342 343 343 343 346 347 345 344 346 345 349 346 347 348 348 348 348 348 349 350 351 351 350 356 357 362 362 362 362 361 357 359 354 354 352 350 350 351 346 344 345 352 357 362 367 369 368 364 356 356 357 357 358 356 352 350 350 347 348 352 352 351 354 354 353 351 351 349
311 313 312 313 316 317 315 318 330 337 336 331 334 331 329 333 336 338 339 340 338 337 337 337 337 338 340 339 341 341 342 343 343 348 349 350 347 348 348 349 348 349 349 348 349 350 350 350 351 353 353 352 353 361 364 363 362 363 360 358 355 357 357 352 350 349 350 353 349 351 359 361 362 366 366 370 366 359 359 360 361 364 362 358 356 354 352 351 350 347 352 354 357 356 355 355 349
313 313 313 313 312 314 317 325 333 332 331 329 329 328 326 331 334 336 339 341 339 339 339 339 339 339 341 340 340 341 341 341 344 347 350 350 350 350 352 353 353 353 352 350 351 350 352 353 353 355 357 354 354 359 363 359 357 356 356 357 354 355 357 356 355 350 352 353 354 357 362 365 364 366 369 371 371 364 359 359 361 363 361 358 355 353 352 350 348 349 348 351 354 354 355 355 357
315 315 314 314 313 315 318 321 331 333 330 326 327 328 327 328 332 335 337 340 340 338 338 339 340 339 340 339 339 341 342 343 345 346 348 349 349 349 353 353 352 352 353 352 350 350 350 352 354 354 357 360 356 356 359 358 354 357 356 354 352 354 357 357 356 357 355 354 358 359 365 365 368 368 368 369 369 367 365 361 363 363 359 358 356 355 355 355 354 355 353 357 352 351 349 351 353
315 314 313 312 313 314 319 323 328 335 327 323 327 327 327 329 333 335 338 338 337 337 338 338 340 341 341 342 341 342 344 346 346 345 346 348 347 347 350 351 350 346 349 350 350 351 352 351 353 354 356 359 358 356 358 359 359 356 356 356 353 351 353 355 357 359 358 357 363 365 366 367 369 369 370 371 369 367 365 361 364 363 360 359 358 357 356 358 361 359 356 353 350 348 348 351 350
315 313 313 311 313 316 318 322 328 333 328 323 329 324 325 328 331 335 336 336 337 338 338 338 340 341 342 342 343 343 344 344 345 346 348 348 346 349 348 349 349 348 348 349 351 352 352 352 355 356 355 355 356 358 358 360 361 362 359 358 357 353 354 356 355 357 360 358 358 362 369 368 368 368 370 370 367 366 362 361 361 363 365 362 359 358 358 358 360 358 359 355 354 351 350 352 354
314 313 311 310 314 312 315 322 325 332 326 327 328 323 324 329 333 335 337 336 339 339 339 339 339 341 341 341 343 343 343 345 345 347 346 347 348 350 350 351 352 351 351 351 351 352 352 354 355 357 357 357 357 358 363 362 363 367 368 365 363 362 358 360 362 364 362 359 361 361 365 368 369 366 366 365 365 364 364 363 360 358 361 366 361 357 357 355 357 355 355 356 355 351 351 351 354
314 313 311 311 311 313 313 323 328 330 329 328 326 322 321 325 327 328 336 339 340 341 339 340 341 341 342 343 343 344 344 346 346 346 347 347 348 350 352 353 353 352 352 352 352 352 351 352 355 357 358 358 357 359 363 367 366 366 369 368 365 363 363 361 358 355 358 360 360 361 360 365 366 366 365 364 364 364 365 364 362 361 360 360 359 357 357 355 356 356 357 357 356 356 351 353 354
311 312 311 310 311 311 316 325 322 320 320 324 321 312 314 322 323 322 335 337 337 342 339 339 341 342 342 341 343 344 345 347 347 347 348 349 350 350 352 352 352 352 352 352 353 353 353 353 354 356 357 357 356 358 363 367 366 364 364 361 359 357 356 356 354 353 353 353 353 358 358 358 360 366 365 364 364 363 366 366 366 363 360 358 357 356 356 355 356 356 358 358 355 359 357 355 352
309 310 313 312 312 312 319 319 317 311 309 324 324 312 309 315 317 323 335 333 333 339 338 338 341 342 341 341 343 343 343 344 347 347 348 349 351 351 352 352 351 350 352 353 353 353 353 354 356 357 357 360 359 361 363 366 366 364 364 359 356 355 354 355 358 357 355 354 354 355 358 360 360 361 362 363 364 366 366 365 367 366 362 359 359 357 357 357 357 358 360 359 359 360 360 356 352
308 312 315 313 312 312 317 318 315 317 320 324 323 317 310 311 319 325 331 329 329 334 336 336 337 342 339 341 341 343 342 343 345 346 348 348 351 351 351 352 351 350 352 353 352 352 354 356 357 358 362 363 362 361 362 366 365 364 364 361 356 353 351 353 356 358 358 360 358 361 358 357 358 359 361 364 363 365 366 365 366 366 362 361 359 359 358 359 359 360 363 363 362 362 361 357 356
310 314 316 315 313 315 317 316 315 316 314 312 316 320 309 308 319 328 328 325 326 329 333 334 335 339 340 340 339 342 343 344 344 344 346 348 349 350 350 351 352 351 352 352 353 353 353 356 358 359 360 364 362 362 361 364 365 362 362 359 358 356 355 354 357 358 357 360 357 357 358 357 358 361 364 366 365 366 366 367 367 367 364 365 365 362 362 361 360 360 362 361 362 361 362 361 360
318 319 320 319 319 319 318 315 315 316 311 307 314 317 309 311 317 320 326 322 322 326 331 333 335 337 339 338 340 340 342 344 344 345 347 349 350 350 350 351 353 352 353 354 354 354 354 356 359 360 362 363 362 365 363 362 364 363 360 360 358 357 357 359 358 357 358 362 361 361 360 361 359 360 365 369 370 367 365 367 364 363 364 363 364 366 365 363 361 362 361 361 361 362 364 363 360
316 319 320 318 319 319 319 318 317 314 306 309 313 317 312 306 314 317 320 319 321 324 328 332 335 336 338 339 340 339 340 342 344 345 346 349 350 350 350 349 352 352 353 353 354 354 354 354 358 361 363 363 364 365 364 363 363 362 360 361 361 358 358 357 357 359 359 360 360 359 359 360 361 361 364 367 365 365 366 365 362 362 363 366 364 363 361 358 357 358 358 361 361 360 360 362 361
315 316 315 316 315 318 316 316 316 306 303 313 316 315 314 304 309 314 321 322 323 323 325 328 332 334 336 339 338 339 340 342 343 344 345 348 350 350 350 350 350 352 352 353 353 354 357 357 358 361 364 366 366 365 365 364 362 362 361 362 362 362 361 358 358 358 360 361 359 359 361 359 360 361 363 363 365 364 364 363 365 365 363 363 360 358 356 353 352 352 351 355 356 359 362 363 364
314 313 313 307 307 307 303 309 303 303 302 312 315 314 311 309 314 317 318 320 325 325 325 329 332 333 336 338 338 340 340 342 343 344 345 347 349 350 350 351 352 353 353 354 353 354 356 358 359 361 364 367 367 364 366 367 366 364 363 362 364 365 363 363 361 361 362 359 359 358 360 362 364 365 363 362 362 364 364 363 363 361 361 362 364 360 356 355 353 351 350 350 355 359 360 362 362
311 310 309 306 301 300 298 302 305 306 310 313 313 317 308 313 315 320 319 325 327 328 329 330 332 334 336 338 339 339 341 341 341 343 344 348 350 350 351 351 352 353 353 353 353 355 355 355 359 358 361 366 370 368 366 367 367 367 367 367 365 366 366 365 366 362 360 363 363 360 358 357 358 359 360 361 359 359 360 361 361 362 363 363 362 363 360 360 357 353 354 354 355 357 360 363 364
311 313 311 308 307 302 298 301 299 301 305 310 315 309 306 306 311 322 325 327 329 329 330 333 335 335 339 339 338 339 340 341 342 344 343 346 349 350 350 350 352 353 351 351 352 355 356 355 356 360 361 366 370 367 366 365 363 365 366 365 364 363 361 362 362 364 364 364 358 354 354 352 350 348 347 349 353 354 355 357 356 357 357 357 358 358 353 355 355 358 358 358 359 360 362 362 359
313 313 314 309 307 312 303 305 304 304 305 306 310 307 313 311 327 328 328 327 327 329 332 333 334 335 337 338 337 337 338 340 341 343 343 347 349 350 349 349 350 350 351 350 350 353 352 355 359 360 362 365 364 366 365 364 364 360 365 366 363 362 363 361 363 365 364 357 347 344 345 347 347 345 348 350 352 353 351 351 353 350 353 352 353 354 354 352 352 352 356 360 359 359 358 359 358
311 311 306 309 316 312 308 307 308 307 305 303 313 310 311 317 318 321 324 328 327 327 329 331 333 333 337 337 337 338 338 340 340 342 342 347 347 348 347 349 348 348 349 350 351 352 355 357 359 360 363 366 364 367 363 363 363 361 363 362 361 363 360 353 345 348 352 344 345 345 342 345 344 346 344 348 348 351 352 353 352 347 346 350 351 352 351 353 357 358 357 359 358 358 359 357 357
312 306 310 315 316 314 310 302 306 303 299 305 309 306 307 308 304 320 325 325 326 328 327 330 335 334 335 337 340 340 339 339 341 342 344 348 348 347 346 347 347 348 349 350 353 353 356 360 361 361 364 365 366 366 362 359 360 359 361 359 358 354 347 344 345 345 344 344 345 346 345 343 341 341 343 344 347 348 349 350 349 349 347 349 349 349 349 351 357 357 359 360 360 360 358 357 357
312 311 317 308 304 303 309 306 299 299 299 301 305 307 307 309 310 313 315 316 321 329 332 332 333 334 334 336 339 339 340 340 341 340 343 346 346 346 347 346 346 348 349 349 352 354 359 361 362 364 364 366 366 366 364 361 359 355 353 351 348 346 342 346 349 350 350 347 344 341 340 341 340 343 344 347 348 347 347 346 348 347 347 348 350 350 351 351 352 352 355 355 357 360 359 357 357
315 316 312 315 312 308 306 306 307 306 300 300 302 306 304 310 312 313 313 317 321 327 332 332 333 335 333 336 337 338 340 341 341 340 342 344 345 346 346 348 346 348 348 348 350 354 355 360 365 366 366 367 367 365 362 360 360 355 347 346 343 346 349 351 352 352 350 342 340 340 340 339 340 341 342 342 342 343 344 344 343 342 342 343 346 347 349 350 351 353 353 352 352 356 356 359 359
309 309 309 311 310 314 312 311 307 304 302 302 302 301 306 314 317 316 316 321 326 327 332 336 335 335 334 338 339 343 343 344 344 340 342 343 345 344 346 348 349 350 350 351 351 354 350 362 365 365 362 363 363 363 362 362 361 357 350 341 341 345 349 352 352 353 351 345 343 342 341 341 342 341 343 343 343 345 345 345 345 346 344 346 347 348 348 349 351 351 353 355 355 354 354 354 358
312 310 308 310 308 306 302 302 310 308 305 303 301 301 309 314 319 323 322 328 330 332 334 335 336 335 336 340 342 347 349 348 343 341 341 342 345 344 346 349 351 350 352 353 353 354 352 362 362 362 362 363 361 359 361 361 360 353 346 345 345 347 352 354 353 351 349 344 342 342 341 344 341 343 343 344 346 345 346 346 345 346 347 346 349 351 349 350 350 350 350 350 349 351 352 352 354
Wind_Speed
16 12 11 8 8 6 6 6 6 6 5 8 8 6 2 3 1 3 3 5 4 3 4 4 6 9 4 5 6 5 1 4 5 2 3 3 5 11 12 15 18 18 16 13 13 14 14 13 11 13 13 12 11 11 10 10 9 8 8 8 8 8 8 8 8 8 7 7 8 8 8 8 8 8 8 8 7 8 8 7 8 7 7 8 7 5 6 7 7 6 5 5 4 3 4 4 4
13 11 8 8 6 6 5 4 4 3 5 8 7 5 6 4 4 4 4 3 4 6 5 6 7 8 3 2 5 4 4 6 9 7 6 4 9 11 13 16 19 18 15 13 13 13 13 14 11 12 12 12 11 10 10 10 9 8 8 8 7 8 8 8 7 7 7 7 7 7 8 8 7 7 7 7 6 8 4 5 8 7 6 7 7 4 6 8 9 5 7 6 5 4 4 4 5
10 9 7 7 5 4 1 3 6 3 6 7 6 4 6 4 4 3 2 1 4 5 7 7 8 6 5 5 6 7 6 4 7 9 6 8 12 9 14 17 17 17 16 12 12 13 11 13 12 10 10 12 11 11 10 9 9 8 8 8 7 7 7 7 7 7 6 6 6 6 6 7 8 6 6 6 7 6 6 5 5 5 7 5 8 7 7 7 9 7 8 7 6 5 5 5 5
10 8 7 6 6 2 4 3 7 5 8 9 4 4 1 1 2 3 4 5 5 7 8 11 8 3 4 6 5 5 5 5 3 5 6 8 6 13 14 18 17 15 13 11 11 11 11 14 9 10 10 11 11 11 10 9 9 8 8 7 7 7 8 6 6 6 6 5 4 5 5 6 6 5 5 5 6 5 4 4 4 4 3 4 3 4 4 6 10 10 8 7 7 6 6 5 5
7 7 6 6 4 5 2 4 4 5 6 3 4 3 1 1 2 4 5 4 6 7 9 9 5 5 3 4 4 1 5 6 6 4 7 7 12 13 16 17 16 14 13 12 11 10 11 17 11 11 10 11 11 10 10 9 9 8 8 8 7 7 7 6 6 5 6 5 4 4 5 5 4 4 4 5 5 4 3 2 3 3 3 3 3 3 3 4 4 6 6 5 6 6 6 6 6
5 6 3 3 4 4 2 2 5 8 3 3 1 2 2 2 3 4 5 5 6 6 8 10 5 10 7 6 2 4 4 2 7 6 9 9 15 16 17 16 15 14 13 11 10 9 11 16 12 11 10 10 10 10 10 9 9 8 8 8 8 7 6 6 5 6 4 4 3 3 4 4 4 4 4 4 4 3 3 3 3 3 2 3 3 3 3 2 3 9 6 7 6 7 7 6 6
7 6 1 2 3 2 5 5 7 5 5 3 5 3 4 3 4 6 6 7 5 6 7 7 7 9 6 5 7 7 6 4 5 7 6 14 16 16 16 14 14 14 14 10 9 9 13 15 13 11 11 10 11 10 10 10 9 8 8 8 8 7 7 6 5 4 3 4 4 4 4 3 4 4 4 4 4 3 3 2 3 2 3 3 3 3 2 3 3 5 7 9 7 5 4 6 7
7 5 5 4 5 2 5 5 6 3 3 3 3 1 4 4 5 5 7 8 9 7 9 5 9 4 7 5 5 6 6 4 6 8 14 15 17 16 16 14 14 14 13 11 9 8 16 13 12 12 12 11 11 10 10 9 9 8 7 7 7 6 6 5 5 2 4 4 3 2 1 2 2 3 4 4 3 3 3 2 2 3 2 3 3 3 2 2 3 3 4 6 7 7 7 6 7
6 2 2 5 5 3 6 5 2 3 0 1 2 4 3 4 3 5 7 5 10 8 11 9 8 4 7 7 6 7 6 7 8 12 15 17 17 16 12 14 14 13 13 11 10 9 10 12 12 12 12 11 10 10 10 10 10 8 8 7 7 7 6 5 3 4 4 3 0 0 1 0 2 2 4 3 3 3 3 3 3 3 3 3 3 4 4 4 3 3 4 2 3 5 5 9 6
5 2 4 5 5 6 4 2 4 4 2 3 1 4 4 3 5 5 7 8 7 11 10 8 7 3 9 8 8 5 6 7 11 12 14 17 17 15 15 15 14 14 13 11 9 10 9 12 12 11 12 11 10 9 10 9 7 10 8 7 6 6 5 5 4 2 1 1 1 2 0 2 1 3 4 3 3 3 3 3 3 3 3 4 4 3 4 4 4 3 3 1 2 2 2 1 3
5 3 3 3 5 4 3 2 1 5 3 2 3 2 2 3 5 5 7 7 5 8 11 9 9 8 7 6 6 4 5 7 10 14 15 16 15 15 14 13 13 13 12 12 10 10 10 10 12 10 9 10 10 9 9 7 7 7 9 7 6 7 7 4 3 2 1 2 3 2 2 1 1 2 2 3 3 3 4 4 4 4 4 4 4 4 4 4 4 4 3 3 3 4 4 4 4
4 4 6 4 4 3 4 2 2 3 2 3 4 3 3 4 3 6 7 8 8 11 9 9 6 8 7 7 6 6 6 7 11 13 15 15 13 14 13 11 12 12 12 11 10 9 9 9 9 9 9 9 9 9 8 7 7 6 9 9 7 5 4 4 2 2 2 3 3 3 2 1 0 1 3 2 3 3 4 4 5 5 5 5 5 6 6 6 6 5 5 5 5 5 5 5 5
4 3 3 3 4 4 5 1 3 2 3 3 4 3 2 4 4 3 5 6 8 11 9 5 7 6 5 5 6 7 8 9 10 14 15 13 13 12 11 11 12 11 10 11 10 9 10 9 8 8 9 8 8 8 8 7 6 8 7 4 3 4 4 5 4 3 4 4 4 3 2 1 1 2 2 2 2 3 3 4 4 4 5 6 6 6 6 6 6 6 6 6 6 6 6 6 7
3 2 1 1 1 4 6 2 2 1 2 3 1 2 3 2 3 1 6 7 8 6 9 7 7 5 6 7 7 7 9 9 12 15 12 13 12 12 11 10 11 10 10 10 9 9 9 8 8 8 9 8 8 8 8 8 7 8 7 7 6 6 6 5 5 4 5 4 3 3 2 2 2 2 3 3 3 3 4 4 4 6 6 6 6 7 7 7 7 7 7 7 7 7 7 7 7
3 1 3 1 1 1 4 3 1 1 3 3 3 3 3 2 1 1 2 6 6 5 8 4 4 7 4 6 7 9 12 12 14 15 14 13 13 12 11 10 10 9 9 9 9 9 8 8 8 7 8 8 8 7 6 8 9 8 8 7 7 7 7 6 5 5 6 5 4 4 4 3 4 4 4 3 4 3 4 6 6 6 7 7 7 7 8 8 7 7 8 7 7 7 8 8 8
1 2 2 3 3 4 3 1 3 2 2 5 5 2 2 4 1 1 3 4 7 6 5 6 3 4 2 2 6 14 15 16 16 15 14 14 12 11 10 10 9 9 8 8 8 8 8 8 7 7 8 8 7 7 6 7 9 9 8 8 7 8 7 7 5 6 6 5 5 4 4 5 6 5 5 5 3 3 3 4 6 5 6 6 7 7 8 8 8 8 8 8 8 8 8 9 9
2 3 2 2 4 3 1 1 3 1 4 6 7 6 4 5 4 3 2 4 8 7 5 5 4 1 5 5 13 17 17 16 16 16 14 12 10 9 8 8 7 8 6 8 7 7 8 8 8 6 7 9 8 7 6 6 7 9 8 8 9 8 8 6 5 6 6 7 7 7 5 6 2 1 2 1 3 2 3 3 3 5 6 6 7 7 7 7 7 7 7 7 8 8 8 10 10
3 1 3 4 3 1 3 4 4 1 3 8 9 7 4 5 5 4 5 7 7 7 7 7 7 10 7 12 15 17 18 18 18 17 14 12 10 10 9 8 8 8 8 7 7 7 7 7 8 7 6 7 7 6 5 5 5 8 7 7 7 8 8 7 6 6 5 4 6 4 4 2 2 1 1 1 2 1 2 3 5 6 7 8 8 8 7 7 6 6 6 6 8 8 8 5 3
3 1 1 3 1 2 2 5 6 4 3 8 7 7 4 4 4 5 5 8 8 8 7 7 10 11 12 13 16 18 19 18 18 16 16 15 12 13 10 9 8 8 8 7 6 8 6 6 8 8 8 8 8 7 5 5 6 6 7 6 5 6 6 6 5 5 4 4 3 2 3 3 1 1 2 2 4 7 8 7 7 8 8 8 8 8 9 7 7 8 7 7 6 7 4 1 3
4 3 2 2 4 2 7 9 5 4 4 9 10 8 4 4 3 4 3 8 7 6 7 7 9 12 13 15 16 17 17 18 16 15 15 14 13 13 11 11 9 9 8 7 7 7 8 7 8 8 8 8 7 6 5 5 6 6 5 6 5 5 5 5 5 4 4 4 3 3 4 2 3 3 2 6 8 6 5 9 10 9 9 10 7 8 10 11 10 12 10 8 10 4 1 3 3
5 3 3 4 10 7 11 6 4 5 4 7 7 8 5 6 4 3 2 6 4 3 5 5 10 12 14 16 17 16 16 17 16 15 15 14 13 11 10 10 9 8 8 7 7 8 9 8 8 8 8 8 8 6 6 5 5 5 5 5 5 4 4 4 4 5 4 4 4 4 4 2 3 3 2 2 3 1 2 2 3 3 1 0 6 3 3 1 6 2 4 8 2 2 2 2 3
4 5 4 7 2 2 2 5 5 4 5 8 8 9 6 5 5 4 4 3 2 3 4 3 10 13 15 17 16 16 16 16 16 15 15 14 14 12 10 9 8 8 7 7 7 8 9 8 8 7 8 8 8 6 6 5 5 5 5 5 4 4 4 4 4 4 4 5 4 4 3 3 3 3 2 2 2 2 2 2 2 1 1 2 1 2 2 2 3 2 2 3 3 3 2 2 3
5 2 6 3 3 5 8 5 5 4 5 7 9 6 5 8 4 4 4 4 2 2 3 5 10 12 13 14 16 15 16 16 16 15 15 15 14 12 11 9 8 9 7 7 7 6 8 9 8 8 8 8 8 7 5 5 5 5 5 5 5 4 4 4 4 3 3 3 4 3 4 3 3 3 2 2 2 3 2 2 2 1 2 2 2 2 2 2 3 2 2 3 3 5 3 3 4
6 1 1 3 1 0 4 5 6 4 5 6 6 6 5 5 4 2 3 2 2 1 4 8 10 11 13 14 14 15 15 15 15 14 14 13 13 12 10 9 8 7 7 8 7 7 8 9 9 8 7 8 7 8 7 5 5 6 5 4 5 4 3 4 4 3 2 3 4 4 3 4 3 3 2 2 3 3 3 2 2 3 3 2 2 3 3 2 3 3 2 4 5 4 5 5 4
5 3 2 4 2 3 4 5 6 7 7 6 6 6 5 4 2 2 4 4 2 3 6 9 10 11 12 13 13 13 14 14 13 13 11 10 11 10 9 8 8 7 8 9 7 8 9 8 10 10 8 8 7 7 8 6 5 5 5 5 5 5 5 4 3 3 4 4 4 4 5 4 4 3 3 4 2 2 3 3 3 3 3 3 3 4 3 3 3 3 3 4 4 4 4 5 3
4 3 4 4 4 4 4 6 6 7 5 4 5 4 3 4 3 6 4 6 4 4 7 10 11 12 12 12 13 12 12 12 12 12 12 10 10 12 11 9 9 9 9 9 8 7 8 9 10 10 10 8 7 7 6 6 5 5 5 5 4 5 5 4 4 4 4 4 4 4 4 4 4 4 3 3 4 3 4 4 4 5 4 4 5 4 4 4 4 4 4 4 5 5 5 5 5
2 6 4 5 6 5 3 4 6 6 6 5 4 4 3 3 6 3 6 8 6 6 8 9 10 11 12 10 10 10 11 11 11 10 11 10 10 11 11 11 10 10 9 10 9 8 7 9 10 10 10 8 7 7 6 6 6 5 5 5 5 5 4 4 5 5 4 4 4 3 4 4 5 5 5 4 4 4 5 5 5 5 5 5 4 5 4 4 4 5 5 5 5 5 6 6 6
5 7 7 6 5 4 5 5 5 5 5 3 3 4 2 3 4 0 4 8 8 7 8 9 9 9 10 11 10 10 9 10 9 10 13 13 10 10 12 10 11 10 10 10 8 8 9 10 10 10 10 9 8 8 7 7 6 6 5 5 5 5 5 5 5 5 5 4 4 4 5 5 5 5 6 5 5 5 5 5 5 5 5 5 4 5 5 4 5 6 6 6 6 5 6 6 6
7 6 3 6 7 5 3 4 4 2 4 4 3 5 5 6 5 5 5 5 8 8 8 9 9 9 9 10 10 10 10 11 10 10 12 11 10 10 12 12 11 10 8 10 10 10 10 10 9 9 10 10 10 9 7 6 6 6 6 5 5 4 5 5 5 5 5 5 5 5 5 5 5 6 5 5 6 6 6 6 6 5 5 4 5 6 7 5 6 6 6 6 6 6 6 7 6
6 3 1 7 6 4 6 4 6 3 5 5 5 2 3 7 5 4 6 7 7 8 7 8 8 9 9 9 9 10 10 11 11 10 10 10 10 11 11 12 11 10 8 7 10 10 8 6 7 7 9 10 10 8 7 5 6 5 5 5 5 5 5 5 6 5 5 5 5 6 6 6 6 5 5 6 6 6 6 6 6 6 5 5 5 6 6 6 6 6 7 6 6 6 6 6 6
4 2 4 2 2 4 7 5 7 4 4 6 5 2 3 5 7 5 5 7 8 8 8 8 9 9 9 10 8 9 11 11 12 12 11 10 10 9 11 11 11 10 7 8 10 10 10 8 6 6 8 10 10 9 9 8 7 6 6 6 6 6 6 6 6 6 6 6 6 6 7 7 7 6 6 6 6 6 7 7 6 6 6 6 6 6 6 6 6 7 6 7 7 6 7 6 7
1 6 2 3 3 7 6 6 8 4 5 6 5 1 4 4 6 6 5 6 8 7 8 9 9 8 9 9 10 9 10 11 11 11 11 11 10 9 10 10 10 10 10 9 8 9 10 10 9 9 9 11 11 10 9 8 8 7 6 6 6 7 6 7 7 8 7 7 6 6 7 7 7 7 7 6 7 7 7 7 7 6 6 6 7 7 6 7 7 8 7 7 7 8 7 8 7
3 4 2 3 2 4 6 6 7 2 6 6 8 3 2 6 5 8 6 7 8 7 7 9 9 9 9 9 9 9 9 10 9 10 11 10 10 9 9 10 9 10 10 9 9 9 9 10 9 10 10 11 10 10 10 9 8 8 8 7 8 8 7 7 7 7 8 8 8 7 6 6 7 7 7 7 7 8 7 8 7 8 7 7 7 8 9 7 8 8 6 6 7 7 8 9 8
2 1 4 4 5 3 3 5 6 7 7 5 7 5 4 5 6 7 7 6 7 7 8 8 8 8 8 8 9 9 9 10 10 10 11 11 10 11 10 9 10 10 9 9 9 9 9 9 9 9 8 8 8 8 8 8 8 7 7 7 8 8 9 8 7 7 7 7 7 7 6 7 7 7 7 7 7 7 7 7 7 8 7 7 7 8 8 9 9 8 8 7 7 7 8 9 9
5 6 5 2 0 1 2 4 8 9 9 5 6 6 2 6 6 7 7 7 7 7 7 9 9 9 9 8 9 10 10 11 12 12 12 11 11 10 9 9 10 9 9 11 10 9 8 8 8 8 8 8 7 7 7 7 7 7 8 8 8 9 8 8 7 7 7 7 8 7 7 7 7 7 7 7 7 7 5 5 6 5 4 6 7 7 8 8 8 10 9 8 7 7 7 8 9
7 7 6 5 4 2 2 7 9 9 7 6 6 4 4 8 7 7 7 8 8 7 7 6 8 8 9 9 9 9 10 11 10 11 12 11 11 10 9 8 9 8 8 9 9 10 9 9 9 7 8 8 7 7 7 7 7 7 8 8 8 8 8 8 8 8 7 8 8 8 7 7 7 7 7 7 7 6 6 6 7 6 5 6 7 8 8 8 9 10 11 10 9 9 8 8 7
6 6 6 4 4 2 4 3 5 6 5 5 5 5 3 4 6 7 8 8 8 8 8 8 8 9 9 9 10 10 11 10 9 10 12 13 13 11 10 9 9 10 10 11 11 11 11 10 10 10 9 8 7 7 7 7 7 7 8 9 8 7 7 7 8 7 8 8 8 8 7 7 7 8 7 7 6 6 6 6 7 7 7 7 7 8 8 9 9 10 9 9 11 10 9 9 9
7 7 6 4 1 1 5 4 6 5 6 4 3 4 5 5 5 6 7 8 9 10 10 9 10 9 9 10 10 10 10 8 9 10 11 12 12 13 11 10 11 12 12 12 12 12 11 12 11 10 9 8 9 9 8 8 8 8 7 7 6 6 6 6 6 6 7 6 7 7 8 7 7 7 6 7 7 7 7 7 8 8 8 7 8 9 10 10 10 10 8 8 10 12 10 9 7
7 6 5 5 1 4 5 5 5 6 4 3 4 4 5 5 7 8 8 8 7 8 9 9 10 10 9 9 10 10 10 10 10 11 11 11 13 12 11 11 11 13 13 13 13 13 12 11 10 10 9 9 9 10 9 9 8 8 7 5 5 6 6 6 6 6 6 8 8 8 7 7 8 7 7 7 7 9 9 8 8 7 8 8 8 9 10 11 9 10 9 8 7 11 11 8 7
7 5 5 1 4 4 6 3 7 7 4 3 1 5 2 4 4 7 9 8 7 7 9 9 10 10 10 10 10 10 11 11 12 11 12 12 12 12 12 12 12 11 12 12 12 13 12 11 11 10 10 10 9 9 10 10 8 5 6 6 6 5 5 5 6 7 8 9 7 7 6 7 8 8 8 9 8 8 8 8 8 9 8 8 8 8 9 11 10 11 11 11 10 10 9 9 9
5 5 5 5 3 2 5 8 6 5 5 4 4 5 5 7 7 6 9 8 8 8 8 9 9 9 10 9 10 10 11 11 11 12 12 12 12 13 13 12 11 12 12 12 12 12 10 13 12 11 10 10 10 9 9 7 5 5 5 5 6 7 7 8 8 9 9 8 8 8 8 8 8 8 8 10 10 9 8 8 8 9 9 9 8 8 9 10 11 11 11 10 10 10 9 9 8
5 5 5 8 8 5 4 10 9 5 6 8 6 5 4 5 7 9 9 9 9 9 9 10 10 10 10 10 10 10 10 9 10 11 11 11 11 11 12 12 12 11 12 12 12 12 11 10 11 11 10 10 10 11 9 7 7 7 6 6 6 6 7 7 8 8 7 7 8 7 8 8 8 8 8 9 10 9 8 9 9 9 10 9 8 9 10 10 11 11 10 10 11 11 9 8 9
7 6 7 7 7 4 6 9 7 6 3 6 5 7 3 4 6 8 8 9 10 9 10 11 11 11 11 11 10 11 11 11 11 10 11 11 11 11 12 12 12 12 11 10 10 10 11 11 10 10 9 9 10 9 8 7 7 8 9 9 8 8 7 7 7 6 7 6 7 7 5 6 7 9 9 8 8 8 8 8 8 9 9 8 8 9 10 11 11 11 10 10 9 8 8 8 11
0 10 8 6 2 6 8 7 8 2 6 7 5 4 5 2 4 4 8 9 10 11 11 11 11 12 12 12 12 12 11 11 11 12 12 12 12 12 12 11 11 11 10 10 9 9 9 9 9 9 8 8 7 6 8 8 8 8 8 9 8 9 9 8 6 6 6 6 6 6 7 7 7 7 8 8 8 8 8 8 8 8 8 9 8 9 10 10 10 10 10 10 9 8 9 9 10
6 8 6 2 2 5 7 6 4 1 4 4 6 5 3 5 5 6 7 9 11 13 13 13 12 12 13 13 13 13 13 12 12 11 12 12 12 12 12 11 10 10 9 9 8 7 8 9 8 8 8 7 7 7 7 8 8 7 7 7 8 7 8 7 6 6 6 6 7 7 7 7 6 6 7 8 8 8 8 8 8 8 8 8 8 9 10 11 12 11 10 10 10 10 10 10 9
7 2 1 1 3 5 6 5 3 3 6 5 7 7 5 4 9 8 7 7 9 12 14 14 15 14 14 13 13 13 12 11 12 12 11 12 12 12 11 10 10 9 9 8 9 8 8 8 9 9 9 7 6 7 7 7 7 6 7 7 8 7 6 6 6 6 5 5 6 7 6 6 6 6 7 7 8 9 9 9 9 10 10 10 9 10 11 11 11 11 12 12 12 12 10 11 11
1 3 4 5 6 5 4 1 3 4 8 6 5 7 5 5 1 4 5 5 6 6 9 12 14 15 15 14 14 13 12 12 11 11 11 11 12 11 11 11 11 11 9 9 9 8 8 8 9 9 8 7 6 6 7 7 7 6 6 7 8 8 8 7 6 6 5 6 6 7 6 6 6 6 6 7 9 9 9 9 10 10 10 10 10 11 11 11 11 11 12 13 13 13 11 12 12
5 5 4 4 5 5 5 5 5 7 6 5 3 5 5 6 6 2 2 4 3 3 6 11 15 17 15 14 13 13 13 12 12 11 11 11 11 11 11 11 11 11 10 10 10 9 8 8 7 8 8 8 7 7 7 7 6 7 7 7 8 8 7 6 7 7 6 7 7 7 6 6 6 7 7 8 8 10 9 9 11 11 10 10 11 10 11 11 11 11 11 11 11 12 12 12 11
7 6 6 9 4 5 7 5 8 8 5 6 2 4 6 9 6 3 7 8 6 4 2 6 12 15 16 15 14 12 12 13 12 11 11 11 11 11 11 11 10 10 10 10 10 9 9 9 9 9 8 8 8 8 8 8 7 7 7 8 8 7 7 8 7 7 6 6 6 6 6 6 6 7 8 9 9 11 10 10 10 9 9 9 10 10 11 12 12 12 13 13 13 12 11 12 11
8 8 7 9 8 8 8 7 4 3 5 4 2 2 8 6 6 7 7 8 7 6 5 3 4 9 15 15 15 13 12 13 12 12 12 11 11 11 11 11 11 10 11 11 10 9 8 7 8 8 9 8 8 7 7 7 8 7 7 7 6 6 6 6 5 6 6 4 4 6 7 7 7 8 8 8 9 10 9 9 9 10 10 10 11 11 11 11 12 12 13 12 13 11 11 12 13
8 8 7 9 8 7 9 5 7 7 1 5 5 5 3 8 5 5 4 3 2 3 4 3 6 6 9 15 15 15 14 13 12 12 12 12 12 12 11 11 11 10 11 10 9 9 8 7 8 8 8 7 7 7 7 7 7 7 6 6 6 6 5 5 5 4 4 5 6 7 6 7 8 9 9 9 10 11 12 11 11 11 11 12 11 11 12 12 12 12 12 12 11 11 12 12 13
7 5 5 7 9 4 8 1 6 3 2 5 7 6 2 2 4 4 5 5 6 5 5 6 7 9 9 12 16 15 14 13 13 13 13 13 12 12 11 11 10 10 10 9 10 10 9 8 9 9 9 8 8 8 7 7 7 6 7 6 6 5 4 4 3 3 4 4 6 6 6 7 8 9 9 10 10 11 12 13 13 13 13 12 12 12 12 12 12 12 11 11 12 10 11 14 13
8 8 9 9 4 5 5 4 2 5 6 9 5 7 8 5 9 11 9 6 8 9 8 9 8 10 10 11 14 15 14 14 13 13 13 13 13 13 11 12 11 11 10 10 10 10 10 9 9 9 8 8 8 8 8 7 7 7 7 8 7 6 6 7 7 4 3 4 5 5 6 6 7 8 9 9 10 9 10 10 11 12 12 11 12 11 12 12 12 12 11 12 12 13 12 13 12
3 9 8 4 1 7 5 7 5 8 8 3 4 7 8 5 4 5 4 7 7 8 9 9 10 11 12 11 13 15 15 14 14 14 13 13 13 14 13 12 12 11 11 11 10 9 9 8 9 9 9 9 8 8 8 8 8 8 7 7 7 7 6 5 3 2 4 5 5 5 6 6 6 7 7 8 9 10 10 11 11 12 12 12 12 12 12 12 12 11 12 12 13 12 12 12 12
11 7 8 9 9 11 8 6 8 8 8 7 8 7 8 6 6 4 8 7 4 7 6 7 10 12 12 12 15 16 15 14 13 14 13 13 13 13 13 13 12 11 10 10 10 9 7 8 8 8 8 8 8 7 7 6 7 6 6 7 7 6 4 3 3 5 5 6 6 6 7 7 8 8 7 7 8 9 10 10 10 11 11 12 13 13 12 12 12 11 12 12 13 12 12 13 12
9 5 9 4 6 7 7 8 8 5 8 6 6 5 7 3 6 7 8 2 4 2 7 7 9 11 11 11 14 16 15 14 14 14 14 14 14 14 14 12 12 11 11 9 10 10 11 8 8 7 7 7 8 8 7 7 7 6 5 5 5 4 4 5 5 6 6 7 8 8 8 8 8 7 8 9 9 10 10 11 11 12 12 12 13 13 12 12 11 11 11 12 12 12 12 12 13
11 11 10 7 8 3 7 1 8 7 8 7 6 7 4 3 1 5 4 1 0 2 4 5 7 10 11 11 13 13 14 14 14 14 13 14 14 14 14 13 10 10 9 8 8 9 9 8 8 8 9 9 9 8 8 7 6 6 6 6 7 7 7 6 7 7 7 8 8 8 7 7 7 8 9 10 10 11 11 11 12 12 12 12 12 13 12 12 11 11 11 13 13 13 13 12 12
11 13 12 11 11 9 10 10 6 9 7 8 7 7 5 4 2 1 2 2 1 0 2 5 8 10 11 10 12 13 12 14 15 14 13 13 13 13 12 11 10 10 9 9 8 7 8 7 7 7 8 8 9 8 7 7 6 6 8 8 7 5 7 7 8 8 9 9 9 8 8 8 9 8 9 11 11 11 11 12 12 13 13 13 12 12 13 12 12 13 13 11 12 13 13 13 12
Wind_Direction
151 153 162 175 159 171 172 201 218 190 225 231 242 198 118 286 85 201 156 119 193 120 137 168 158 151 157 168 176 163 42 158 19 269 53 82 136 144 150 148 138 144 143 144 144 148 156 156 159 157 157 154 152 149 149 150 148 147 142 145 144 139 137 135 134 133 134 130 121 119 115 111 116 117 120 116 116 111 117 116 115 115 122 124 123 121 130 123 113 119 146 131 139 150 161 169 178
156 157 160 162 170 176 187 187 285 190 227 250 225 228 111 143 195 201 231 152 11 126 155 149 151 160 61 208 154 163 98 51 51 86 95 83 132 143 150 143 144 143 142 143 146 154 159 152 160 164 159 152 156 151 151 151 151 147 148 148 147 140 139 138 134 132 129 121 125 122 124 124 108 121 118 116 104 102 111 129 125 130 133 136 130 158 148 132 128 147 140 146 148 159 177 183 186
141 143 153 173 165 238 64 215 240 168 223 227 231 139 128 197 209 158 86 156 111 132 155 144 147 152 151 164 164 195 97 98 107 73 87 140 138 149 152 149 145 141 141 144 152 155 156 153 161 167 157 152 157 154 152 152 151 152 152 151 148 143 140 145 137 132 127 123 117 122 124 129 144 117 103 101 114 121 115 126 130 134 133 140 133 159 138 137 136 155 151 148 159 170 170 190 192
148 152 146 181 164 229 203 180 246 227 207 225 185 88 107 197 146 92 116 120 137 169 160 139 161 153 199 160 131 123 112 123 91 89 117 157 137 146 150 149 142 142 145 145 151 156 157 144 164 156 153 157 157 157 153 154 153 157 156 157 150 149 146 146 141 134 126 123 140 139 109 94 72 63 70 83 69 79 78 71 65 68 69 82 99 93 109 112 141 167 157 155 158 173 181 184 200
162 162 155 216 200 191 226 214 240 200 238 323 2 32 144 181 98 122 120 143 149 173 168 150 126 168 11 85 104 200 98 93 119 72 123 132 131 147 148 144 147 146 146 147 151 151 148 142 150 146 153 156 157 159 153 156 157 161 160 158 152 153 150 144 139 135 134 141 135 146 83 69 79 83 81 72 64 67 64 72 71 77 91 86 82 96 100 115 116 108 105 134 151 159 178 189 198
139 157 169 241 229 19 250 240 228 240 333 355 227 73 78 104 135 137 129 147 158 175 159 168 149 156 163 107 27 83 20 116 112 105 128 122 142 146 144 148 148 147 145 147 149 155 145 138 149 148 155 158 160 156 158 161 162 164 160 161 153 156 152 138 143 165 139 134 175 90 66 76 78 74 68 58 56 60 80 73 75 72 74 78 75 84 86 88 86 111 137 137 144 170 187 191 203
159 138 242 247 246 192 249 249 243 286 59 309 322 82 88 119 124 147 141 138 160 168 160 167 135 159 144 129 108 71 61 55 172 119 137 136 138 145 144 150 149 145 143 147 151 153 140 140 153 155 157 162 160 159 159 167 166 163 162 163 154 155 151 155 151 135 193 77 54 55 59 57 60 57 59 56 56 66 61 57 61 56 51 58 69 64 62 69 86 83 120 119 128 126 166 194 193
161 181 167 198 208 201 238 232 275 309 100 324 28 337 111 122 147 173 149 158 152 167 176 163 163 147 73 140 131 89 73 41 73 116 124 140 142 144 152 148 148 146 144 147 153 147 118 149 157 159 161 159 159 163 163 167 169 160 165 163 154 156 164 161 154 112 91 70 43 45 52 59 57 63 48 44 63 55 54 50 57 58 58 49 49 44 30 37 62 63 74 111 143 162 188 186 184
169 184 52 234 233 211 259 264 325 92 324 305 108 57 126 126 143 161 158 167 149 169 177 169 157 174 127 145 105 98 76 81 99 117 137 139 142 147 151 152 149 146 146 152 151 145 149 152 162 163 161 161 164 168 171 170 171 159 168 168 159 167 165 147 101 82 72 84 196 330 156 110 81 39 43 34 33 20 35 37 32 27 33 31 19 18 10 17 12 27 38 50 198 189 182 189 187
169 269 169 232 268 251 238 216 230 90 18 68 131 136 140 157 151 171 147 154 160 152 159 159 168 105 142 128 120 137 91 102 122 132 138 142 141 148 148 152 149 149 149 154 150 148 151 155 162 164 161 162 166 174 189 168 180 163 169 175 174 165 184 146 111 87 79 209 213 206 251 273 80 38 26 12 6 7 13 20 17 9 15 17 11 359 4 1 352 344 343 299 308 318 278 216 211
179 194 254 251 230 246 231 240 29 116 117 114 105 108 137 176 153 146 158 133 153 151 146 152 176 137 139 106 80 71 115 125 137 136 143 142 144 148 148 149 149 151 153 152 152 146 149 157 159 165 171 166 164 176 177 169 173 181 172 182 186 189 172 130 162 118 219 217 241 240 260 226 44 20 9 4 354 356 1 0 0 3 1 358 1 0 353 353 350 334 331 326 327 308 295 285 283
179 200 193 245 265 275 30 358 77 63 90 138 125 147 162 169 162 150 143 149 166 149 149 176 145 152 123 138 107 125 131 150 135 136 141 142 146 147 146 147 149 153 152 147 150 145 148 153 162 165 173 176 173 174 173 175 186 200 187 188 194 165 192 177 182 206 225 241 241 262 230 197 259 351 5 353 354 345 349 352 351 347 351 350 347 349 346 342 339 336 326 324 316 312 300 290 286
272 201 238 256 334 321 95 263 75 23 120 155 123 141 152 177 163 127 147 148 156 150 144 163 118 186 141 117 114 140 146 139 135 144 141 147 145 146 147 144 151 149 149 150 154 151 149 150 165 167 175 181 180 187 180 187 202 198 205 209 216 211 202 204 210 216 230 249 246 229 216 249 319 318 328 323 321 333 337 338 340 343 341 344 340 338 338 337 336 332 331 325 319 315 305 299 290
267 255 267 343 239 348 8 20 67 211 129 122 139 128 169 169 96 161 168 150 147 154 121 131 158 153 109 133 155 154 146 146 146 144 145 144 145 147 141 147 151 153 151 158 158 156 155 157 162 166 171 184 184 188 194 199 201 211 211 210 214 221 220 216 217 217 234 237 246 255 261 268 280 297 292 313 316 346 330 1 357 360 353 350 348 345 340 338 339 333 329 328 323 312 309 304 298
233 213 259 262 56 99 62 8 332 68 117 135 115 185 162 129 170 214 228 138 105 79 115 144 92 216 108 209 153 162 151 157 154 147 145 142 144 143 144 150 150 150 151 162 161 161 159 161 162 159 170 182 186 188 193 192 202 207 217 217 219 225 228 225 221 227 232 236 257 274 281 284 296 292 281 294 316 316 343 296 46 341 340 337 340 337 337 334 329 334 329 325 321 317 311 310 302
176 234 275 336 49 353 81 143 303 32 115 174 132 180 192 114 93 200 77 346 115 127 177 132 197 359 91 284 117 134 147 153 153 151 144 143 143 143 143 153 152 151 158 163 164 166 164 169 159 165 169 183 186 186 190 199 185 210 216 220 224 228 229 227 229 235 238 244 250 280 281 280 232 224 161 253 204 295 263 332 342 329 324 332 335 335 331 334 334 330 329 320 315 311 308 306 302
172 250 267 18 80 20 62 240 203 120 120 167 148 188 188 136 128 83 138 153 135 121 85 64 90 64 45 95 121 129 144 149 153 150 146 146 148 152 152 158 157 153 160 171 169 170 169 171 167 165 171 186 184 178 192 195 182 195 213 221 227 226 229 230 238 244 245 227 236 223 234 237 256 297 191 290 34 276 357 292 330 329 328 328 324 325 323 320 323 317 316 311 304 305 303 301 279
200 293 328 65 19 226 211 231 214 57 197 177 171 180 179 142 146 119 175 140 121 118 106 105 89 74 99 109 122 135 144 152 156 154 153 151 161 156 163 163 168 164 167 168 174 175 174 174 170 173 175 182 186 181 188 191 183 189 210 209 213 214 216 221 221 238 217 251 191 244 244 252 255 232 310 301 266 347 244 353 311 299 302 301 303 299 300 296 290 291 285 287 293 295 300 302 320
257 343 328 29 16 33 273 241 224 206 199 174 173 185 181 119 161 152 192 142 143 124 117 112 101 102 110 123 129 144 148 153 158 158 159 159 166 163 165 162 174 163 167 169 175 177 180 174 178 176 178 181 187 191 182 193 193 197 205 210 209 217 219 208 230 215 240 229 268 278 256 247 254 286 264 331 313 301 282 280 273 273 272 277 278 283 275 262 258 258 250 261 275 268 260 299 279
214 268 22 286 314 244 261 249 222 183 146 170 178 172 175 155 166 141 192 153 154 155 143 150 129 127 129 132 141 147 153 154 160 163 164 166 168 166 164 166 168 169 168 173 168 180 178 181 181 183 177 180 189 189 195 190 195 199 207 195 212 202 209 209 212 226 221 238 246 255 252 234 246 241 206 231 246 239 214 211 224 242 243 245 245 260 231 217 233 228 233 236 229 171 269 271 267
122 213 225 200 211 233 189 195 186 162 166 166 177 155 176 173 155 195 161 168 163 158 137 156 145 140 142 144 146 155 157 158 164 169 170 169 168 169 167 168 170 168 169 168 166 184 178 184 180 180 184 183 189 194 198 200 191 202 205 206 208 212 210 204 200 204 219 230 240 249 260 276 289 286 269 269 265 302 299 288 211 213 154 275 188 298 294 117 218 319 199 198 280 233 224 250 283
144 223 217 260 187 289 49 140 138 147 144 164 169 169 171 139 165 176 203 82 113 17 134 136 143 148 150 151 153 159 161 163 168 171 174 173 170 171 167 166 165 166 156 176 175 178 182 187 182 176 185 189 189 204 196 196 197 206 205 208 208 210 214 218 217 206 207 205 230 242 270 267 257 257 268 268 268 263 269 283 281 286 262 273 261 275 341 307 306 285 287 322 288 295 267 287 342
243 191 233 259 238 116 249 132 138 152 139 157 167 165 143 187 157 184 187 115 59 262 138 142 151 157 152 153 154 164 165 167 172 175 175 178 174 174 171 169 168 170 166 181 171 178 186 187 188 180 184 187 193 205 204 203 200 213 211 202 212 209 210 215 218 223 219 205 222 246 258 248 255 258 244 243 258 262 276 267 280 299 282 281 297 317 316 317 298 295 308 293 298 273 290 278 239
255 231 39 60 100 89 135 131 142 123 137 131 147 166 191 186 179 179 187 113 110 104 143 142 151 152 152 158 168 166 169 172 174 176 178 181 177 176 171 174 176 168 173 179 179 180 186 192 187 190 185 186 191 200 209 209 209 210 208 205 213 222 220 216 221 225 234 218 224 239 236 260 258 262 259 254 250 254 253 272 288 279 275 293 323 323 297 325 326 297 302 305 297 302 291 293 294
209 248 110 100 86 90 122 117 113 108 114 141 166 182 189 201 204 206 195 166 143 138 134 139 145 151 156 166 169 170 170 174 175 175 175 180 180 177 178 182 184 176 184 181 186 189 188 194 188 195 190 193 190 198 206 211 209 215 212 206 211 201 224 230 227 233 221 226 217 222 229 246 253 254 254 250 248 270 277 276 279 285 301 288 301 281 307 315 304 321 319 294 283 309 303 286 315
220 73 104 113 101 114 98 107 116 111 105 137 163 165 197 200 210 240 195 160 167 146 137 146 153 152 162 172 165 173 174 175 175 174 176 176 180 182 186 190 187 191 188 186 187 193 192 189 196 197 200 192 199 198 206 209 213 213 216 213 214 198 219 225 223 223 228 231 225 215 231 250 259 261 253 271 270 259 263 265 260 267 279 291 274 291 309 299 304 318 298 291 324 317 308 305 304
171 114 115 112 114 114 110 105 109 107 113 138 154 166 163 163 227 166 212 148 171 180 148 152 159 158 163 169 166 176 176 176 179 173 176 178 182 190 191 194 194 196 193 194 193 192 191 195 196 200 201 201 201 207 197 210 211 216 215 214 208 212 208 211 221 232 235 227 227 203 224 234 260 261 264 260 261 256 249 246 256 264 265 269 279 280 291 306 313 304 306 317 307 314 314 305 291
126 111 112 111 112 105 116 124 126 138 115 136 150 137 156 194 195 302 101 145 184 176 156 163 165 163 165 166 171 174 178 176 184 181 181 181 183 190 192 195 196 196 197 198 196 194 194 200 201 196 204 194 209 209 197 210 213 212 214 222 221 212 206 220 220 231 230 233 232 208 217 228 236 264 275 277 271 271 267 259 254 248 253 260 268 283 280 304 303 294 300 295 292 290 289 289 283
137 166 138 123 129 133 142 138 147 187 111 175 149 153 190 192 213 195 157 147 179 166 172 172 171 166 168 170 170 175 181 179 187 185 189 186 187 191 195 193 195 197 197 200 196 193 199 197 204 201 203 197 203 213 209 210 210 212 207 219 221 214 213 223 234 232 227 228 222 224 221 226 232 255 258 257 264 262 266 268 263 261 261 268 273 282 299 291 272 270 271 283 281 277 283 286 286
184 215 297 163 173 149 143 139 150 187 93 186 187 202 137 183 187 160 161 164 179 165 184 181 169 171 167 174 177 173 180 183 191 188 191 187 192 191 198 193 195 197 192 198 200 198 195 195 195 200 204 205 202 208 211 209 210 212 215 209 215 217 223 227 232 235 231 230 227 219 225 227 235 245 255 256 263 264 259 258 268 273 279 271 277 281 281 282 279 283 285 285 286 277 274 279 291
222 158 244 350 309 129 170 161 157 174 126 199 207 337 79 132 163 144 159 163 183 186 176 188 169 175 168 176 177 178 181 193 192 188 190 190 191 193 197 193 191 199 188 198 201 198 194 196 194 201 198 207 198 207 203 207 209 214 207 217 216 212 220 226 231 229 226 229 230 224 220 226 227 232 236 256 256 258 265 262 263 269 277 294 287 286 282 281 286 279 281 282 285 289 279 282 286
208 223 148 122 325 105 144 174 178 183 151 209 217 252 81 116 147 175 168 174 188 195 176 181 173 180 172 176 183 182 187 191 195 193 190 191 194 194 194 193 190 198 200 197 198 202 203 202 196 213 195 205 205 202 204 204 210 215 220 216 227 211 222 232 233 239 240 235 233 234 221 223 223 225 229 233 256 263 266 273 271 276 283 279 281 286 288 277 273 276 277 283 289 294 305 288 281
181 316 39 26 359 91 145 197 189 207 141 189 237 355 123 121 161 180 177 183 186 182 184 181 175 183 180 182 183 190 183 190 191 197 194 196 196 202 197 202 197 202 206 201 204 203 211 203 199 218 214 205 213 201 202 204 209 212 216 218 224 219 223 225 235 243 245 244 242 246 225 215 223 223 221 223 240 253 261 268 274 279 287 292 300 292 283 282 278 281 286 284 285 286 290 293 289
127 33 360 36 349 336 106 148 195 170 193 180 208 242 65 81 146 170 175 195 192 182 179 180 177 186 188 188 187 189 188 194 194 198 201 198 198 201 207 202 209 209 212 219 213 214 215 214 208 217 224 216 197 207 199 203 209 213 218 226 224 229 229 234 236 234 240 247 247 245 239 234 229 225 223 223 236 256 269 282 293 303 306 293 279 276 279 286 284 279 277 278 286 288 284 293 298
354 346 347 59 112 92 7 156 192 180 206 237 185 239 215 133 140 172 179 187 196 191 180 179 182 186 187 194 194 194 195 196 197 198 202 203 207 201 210 207 214 218 218 216 223 225 227 226 226 207 224 228 213 197 198 207 209 211 223 226 227 228 233 239 245 246 238 234 239 243 229 228 231 232 231 225 234 246 252 262 274 275 260 263 273 273 273 273 284 282 279 281 280 280 284 286 290
323 332 338 323 322 62 90 87 146 182 181 221 214 224 175 180 172 166 177 188 196 196 191 182 184 185 187 198 194 199 202 206 203 196 198 204 209 206 210 216 222 225 235 235 231 228 227 231 228 226 217 223 217 203 195 208 213 214 220 221 224 224 227 226 229 236 237 240 237 231 222 224 226 225 224 225 234 248 251 250 249 237 251 260 259 259 262 257 256 263 271 282 286 281 272 260 256
306 284 287 312 318 165 100 142 139 185 220 221 209 230 251 159 168 177 183 178 194 200 193 190 192 190 189 201 198 200 205 212 202 203 199 205 206 208 209 215 218 220 222 229 229 229 226 223 224 227 223 215 220 210 207 210 213 214 223 227 230 225 226 232 232 230 230 234 239 238 225 224 220 221 225 226 230 231 237 244 235 231 242 247 253 262 271 279 288 287 298 279 272 273 273 272 266
276 294 290 303 264 78 91 110 147 169 240 139 183 226 240 231 172 178 169 184 194 196 196 196 195 196 194 200 203 197 205 206 211 204 207 206 211 211 206 214 221 223 222 224 226 230 231 229 225 226 226 220 221 221 214 219 220 222 223 229 237 244 237 229 246 246 240 236 224 224 232 234 228 225 216 215 223 224 225 227 222 229 232 243 251 258 267 272 270 270 272 291 285 283 275 271 278
269 271 306 297 151 80 121 144 158 165 217 216 151 235 220 207 202 184 189 198 198 198 199 202 194 195 201 198 203 201 200 202 204 206 206 211 211 209 210 215 220 226 226 223 225 225 227 229 231 231 230 228 225 223 224 225 226 232 240 243 248 267 266 266 265 258 246 245 240 226 217 229 229 229 218 210 217 222 230 233 235 233 232 239 242 249 254 256 264 270 266 257 281 272 269 269 251
267 265 248 246 71 245 141 172 166 175 230 25 104 264 214 181 196 196 200 207 203 203 202 203 196 200 201 198 198 201 204 203 205 208 210 209 209 205 210 215 219 222 225 228 224 222 224 226 226 223 229 233 235 227 223 234 236 230 231 245 268 265 266 263 251 249 254 256 248 239 223 222 224 231 224 224 226 226 225 230 242 249 241 236 246 256 260 266 265 262 260 254 252 262 266 260 255
228 253 292 289 263 207 324 141 166 172 193 232 257 252 232 197 192 208 196 199 198 203 204 207 203 203 205 204 199 203 203 199 209 207 210 208 207 203 208 215 217 219 223 225 224 222 219 220 219 221 222 228 232 231 227 232 223 215 215 228 240 247 249 250 255 254 250 246 250 240 239 227 229 236 233 231 234 232 224 225 238 249 256 253 253 259 261 261 263 268 269 271 261 262 271 288 272
274 76 13 334 309 276 141 138 156 187 195 202 235 244 203 137 182 209 154 174 191 192 205 202 200 202 202 207 207 205 213 205 206 207 201 204 202 198 202 208 214 217 219 222 222 221 217 220 218 210 222 229 234 232 224 216 214 211 208 218 225 228 239 236 238 247 249 243 241 243 254 245 232 235 235 237 235 236 228 230 237 247 254 254 250 259 268 270 262 256 252 254 256 244 246 249 269
276 79 342 325 305 230 163 176 208 205 216 137 201 280 110 157 212 209 167 187 197 184 204 206 195 201 201 205 203 206 206 204 208 208 205 198 193 203 203 206 211 216 212 214 217 218 214 214 215 222 217 224 233 234 222 206 212 215 220 232 240 242 248 250 253 265 273 274 273 266 252 247 246 247 249 242 237 235 239 239 239 243 250 254 254 254 256 259 264 263 259 249 245 246 239 236 242
67 28 352 312 258 186 180 199 234 15 84 147 218 225 283 255 140 175 178 207 205 196 201 212 200 200 202 202 201 202 205 202 198 202 202 209 198 205 208 205 207 208 207 202 206 207 204 208 212 207 216 225 234 231 211 206 214 219 225 236 247 248 251 260 261 264 267 272 268 263 267 266 260 249 253 255 243 237 239 242 237 238 244 250 255 255 256 259 264 267 264 262 259 250 240 240 246
358 2 327 327 239 181 184 205 222 183 243 189 177 159 238 243 105 179 181 198 210 209 208 206 209 202 202 203 203 197 202 199 198 198 197 202 204 202 207 205 205 207 199 194 193 201 195 193 200 203 208 212 221 212 207 205 214 221 226 233 238 251 262 268 267 261 268 278 277 277 275 278 265 248 245 247 239 238 237 240 239 239 245 251 254 254 252 254 255 258 258 255 248 242 239 241 239
87 338 298 184 162 184 192 213 198 190 237 234 167 188 264 242 148 208 184 228 212 214 209 205 203 205 203 202 202 198 195 198 200 197 196 192 203 203 204 201 194 206 197 194 189 196 201 190 187 198 197 204 201 190 198 204 208 214 224 239 249 249 251 256 263 266 263 262 268 268 269 262 258 246 242 237 238 240 240 233 233 239 246 251 250 252 255 255 253 250 250 250 250 245 239 237 235
350 227 190 147 161 154 182 189 210 205 236 237 154 179 270 287 279 143 174 194 210 203 194 202 200 201 201 203 200 195 193 191 195 194 191 191 197 202 199 200 192 196 200 196 204 200 206 204 192 197 205 212 204 196 192 197 202 207 220 228 233 242 248 255 256 256 255 254 260 267 258 245 247 258 250 253 249 243 241 245 252 251 250 251 248 253 253 255 256 255 254 249 246 246 244 241 240
229 219 210 168 137 171 171 166 205 240 229 107 145 202 209 251 147 138 85 120 169 187 180 197 198 197 197 199 200 196 191 187 188 189 188 187 191 199 197 201 193 197 199 201 205 202 209 211 207 204 205 206 204 198 196 200 203 204 220 221 228 234 241 245 246 248 246 249 251 250 250 256 252 248 245 251 254 251 250 249 248 252 252 252 253 255 262 266 267 265 262 260 255 246 243 244 244
223 234 224 225 188 205 209 183 210 216 243 116 172 193 222 231 259 155 160 216 182 218 237 190 198 197 193 193 197 194 192 184 186 184 186 184 187 192 194 195 197 197 203 205 210 205 202 207 205 203 207 201 204 203 196 202 203 207 210 216 220 225 225 231 246 254 254 252 252 258 256 252 245 243 250 256 257 251 251 249 248 249 245 242 251 266 273 275 273 272 270 263 259 256 252 245 238
216 227 215 226 216 219 228 218 253 261 108 128 173 167 266 294 242 235 242 192 213 207 204 199 203 204 194 191 191 190 191 186 184 181 187 181 185 189 191 195 194 197 203 202 206 212 203 201 203 206 201 200 196 208 210 206 210 218 217 217 220 212 220 229 233 250 248 259 263 268 278 283 286 277 270 263 270 273 268 265 257 257 258 261 263 263 265 267 271 268 263 261 261 261 259 251 245
213 234 240 235 237 230 223 221 229 238 197 119 150 230 250 238 113 105 105 104 186 213 227 198 215 217 199 196 189 188 189 185 185 181 187 182 184 186 187 191 193 197 202 200 198 194 197 198 195 197 204 195 199 207 213 221 228 223 223 227 225 228 226 219 227 241 278 270 273 285 286 285 284 286 284 285 285 280 278 274 270 268 268 267 263 259 261 260 258 256 258 260 259 255 254 254 254
221 219 255 264 244 219 253 297 255 266 187 197 172 253 281 263 88 144 156 173 194 199 202 199 195 202 188 198 191 187 186 185 185 180 186 182 181 183 186 187 190 193 191 197 192 186 196 194 193 199 200 206 207 206 212 217 221 224 205 214 218 221 229 237 219 236 244 271 289 295 299 291 282 282 279 280 278 275 274 273 270 267 264 263 261 261 261 263 263 260 255 252 252 251 250 249 251
156 202 216 231 333 263 242 225 235 266 238 251 163 236 232 235 220 219 209 217 222 212 209 199 189 188 181 192 188 184 185 185 186 183 186 181 180 184 186 188 188 188 186 193 194 190 192 187 191 195 196 200 204 200 206 208 203 207 195 200 202 193 210 241 247 212 227 268 275 272 272 278 285 279 280 277 276 276 276 277 278 280 279 275 268 261 260 260 259 259 259 257 256 253 252 252 252
126 222 211 94 248 305 276 254 163 244 248 217 208 249 256 225 236 129 168 219 198 199 204 191 175 179 180 184 185 184 187 185 186 186 182 182 183 184 187 188 190 188 186 190 190 198 182 189 190 190 191 195 193 193 202 201 198 200 200 205 211 237 231 219 189 234 234 246 250 249 261 271 283 299 302 297 293 284 279 276 273 273 273 273 274 274 270 263 258 255 256 257 258 258 256 255 252
252 326 51 216 183 213 197 264 238 237 234 254 214 234 266 267 261 200 203 243 180 173 177 188 176 181 184 182 186 183 188 185 185 188 182 184 184 186 188 190 190 186 193 190 186 196 177 188 189 193 196 192 188 188 196 207 196 214 213 229 225 201 206 182 179 200 220 242 262 280 287 291 287 282 280 280 279 278 276 275 272 269 266 265 264 263 262 263 263 261 259 258 258 257 256 254 253
240 272 240 240 293 255 203 214 261 266 266 253 232 220 273 233 253 265 274 261 289 154 172 198 191 183 184 181 181 181 186 186 186 189 187 187 184 188 186 190 191 185 190 195 188 185 193 185 181 187 190 182 181 184 187 197 204 231 239 216 200 198 186 191 200 214 236 272 287 292 293 286 287 295 289 287 281 281 282 283 282 280 276 272 268 264 263 261 259 257 260 260 261 259 256 255 258
198 212 230 214 235 359 310 216 243 245 260 256 273 256 224 279 36 289 293 359 124 240 184 185 198 186 183 177 181 177 184 182 187 192 189 187 185 189 185 189 187 187 186 197 190 192 198 174 181 184 188 179 184 186 188 198 202 211 232 222 209 191 204 207 219 225 239 261 276 283 283 291 295 283 286 283 281 278 277 275 276 276 275 272 272 272 273 273 270 266 260 264 267 267 265 261 257
213 206 220 220 213 204 220 229 191 249 242 255 257 257 278 94 80 1 308 70 46 37 229 185 194 190 180 171 182 175 182 188 192 196 190 188 185 188 182 184 177 184 177 180 185 193 191 174 182 182 183 182 189 189 195 197 202 211 213 215 230 224 213 221 226 233 242 267 279 287 290 286 282 282 278 279 280 282 278 276 273 272 272 272 271 269 266 266 264 262 263 262 265 263 260 258 261